sat.trackr.live / text

‹ back to catalog

WARATAH SEED-1

NORAD 60469 · 2024-149B

PAYLOAD ACTIVE UNKNOWN

§ Identity

Operator
Country
AUS
Launch date
2024-08-16
Launch site
AFWTR
Launch vehicle
Mass (kg)
RCS (m²)

External: N2YO · Heavens-Above · Gunter

§ Orbital elements

Epoch: 2026-05-25T04:10:41.951424Z

Period
93.79 min
Inclination
97.3686°
Eccentricity
0.0000690
Mean motion
15.35280533 rev/d
Perigee alt
459.6 km
Apogee alt
460.6 km
Semi-major
6,838.2 km
B*
4.0153e-4
RAAN
225.7383°
Arg perigee
14.8355°
Mean anomaly
345.2909°
Rev number
9,858

§ Raw data

WARATAH SEED-11 60469U 24149B   26145.17409666  .00013684  00000+0  40153-3 0  99992 60469  97.3686 225.7383 0000690  14.8355 345.2909 15.35280533 98584

JSON: /api/v1/satellites/60469 · /tle

For live sub-satellite position, see the globe view (requires WebGL).

§ Visibility from observer

Set your observer location to see the next 7 days of passes ≥ 10°. The values pass through the URL so the page stays shareable.

No JS? Fill the form by hand. The geolocation button needs JavaScript.

§ Radio — SatNOGS DB

ModeDescriptionDownlinkUplink
BPSK Mode U - BPSK1k2 - G3RUH 400.650 MHz
QPSK Mode S - Transmitter (inactive) 2.259 GHz

2 transmitters · refreshed weekly from db.satnogs.org